Meteo Giornale » Osservazioni meteo Stati Uniti (USA) » New Bedford

ore: 10:53 - Osservazioni Meteo New Bedford
Lat. 41° 40' N Lon. 70° 57' W Alt. 24 metri s.l.m.

coperto_pioggia

20 °C

Pioggia

Temp. 24 Ore

17 °C

25 °C

Sud/Sud-Est

14.8 Km/h

Dew point 16 °C

Umidità 77 %

Visibilità  13 Km

Il sole sorge alle ore 06:10

Il sole tramonta alle ore 19:17

Data e Ora Cielo e Fenomeni T °C DP °C Um. % Pres. hPa Vis. km Vento km/h
Oggi h: 10:53 coperto_pioggia Pioggia 20 16 77 1017 13 S/SE 14.8
Oggi h: 09:53 coperto_pioggia Pioggia 21 19 88 1017 10 E/SE 7.4
Oggi h: 08:53 coperto_pioggia Pioggia 21 17 77 1017 10 SE 11.1
Oggi h: 07:53 coperto Coperto 19 18 93 1017 10 N 0
Oggi h: 06:53 coperto Coperto 18 17 93 1017 10 N 0
Oggi h: 05:53 coperto Coperto 17 17 100 1016 10 N 0
Oggi h: 04:53 coperto Coperto 18 17 93 1017 10 N 0
Oggi h: 03:53 coperto Coperto 18 17 93 1017 10 N 0
Oggi h: 02:53 coperto Coperto 18 17 93 1017 10 N 0
Oggi h: 01:53 coperto Coperto 18 16 88 1018 10 N 0
Oggi h: 00:53 coperto Coperto 18 17 93 1018 10 N 0
Ieri h: 23:53 molto_nuvoloso Molto Nuvoloso 18 17 93 1018 10 N 5.5
Ieri h: 22:53 molto_nuvoloso Molto Nuvoloso 19 16 82 1018 10 S/SE 7.4
Ieri h: 21:53 coperto Coperto 19 17 88 1019 10 N 0
Ieri h: 20:53 coperto Coperto 19 16 82 1018 10 S/SO 7.4
Ieri h: 19:53 coperto Coperto 19 17 88 1019 10 S/SO 11.1
Ieri h: 18:53 sereno Sereno 20 17 82 1019 10 S 11.1
Ieri h: 17:53 sereno Sereno 21 17 77 1019 10 S 11.1
Ieri h: 16:53 sereno Sereno 22 16 68 1018 10 S 9.3
Ieri h: 15:53 sereno Sereno 23 13 53 1019 10 SE 14.8
Ieri h: 14:53 poco_nuvoloso Poco Nuvoloso 24 14 53 1019 10 N 0
Ieri h: 13:53 sereno Sereno 25 13 47 1019 10 N 7.4
Ieri h: 12:53 sereno Sereno 24 13 50 1020 10 N 0
Ieri h: 11:53 sereno Sereno 23 14 56 1020 10 N 0